Time,TemperatureF,DewpointF,PressureIn,WindDirection,WindDirectionDegrees,WindSpeedMPH,WindSpeedGustMPH,Humidity,HourlyPrecipIn,Conditions,Clouds,dailyrainin,SoftwareType,DateUTC
2013-01-27 00:00:00,72.0,57.8,30.24,East,90,3.5,3.5,61,0.00,CLR,,0.00,WeatherDisplay:10.37,2013-01-27 05:00:00,
2013-01-27 00:02:00,72.0,57.8,30.21,ESE,112,6.9,6.9,61,0.00,CLR,,0.00,WeatherDisplay:10.37,2013-01-27 05:02:00,
2013-01-27 00:03:00,72.0,57.8,30.21,NW,315,6.9,6.9,61,0.00,CLR,,0.00,WeatherDisplay:10.37,2013-01-27 05:03:00,
2013-01-27 00:08:00,72.0,58.2,30.21,East,90,6.2,6.2,62,0.00,CLR,,0.00,WeatherDisplay:10.37,2013-01-27 05:08:00,
2013-01-27 00:13:00,72.0,58.2,30.21,East,90,5.8,5.8,62,0.00,CLR,,0.00,WeatherDisplay:10.37,2013-01-27 05:13:00,
2013-01-27 00:19:00,72.0,57.8,30.24,East,90,6.0,6.0,61,0.00,CLR,,0.00,WeatherDisplay:10.37,2013-01-27 05:19:00,
2013-01-27 00:24:00,72.0,58.2,30.24,East,90,2.3,0.0,62,0.00,CLR,,0.00,WeatherDisplay:10.37,2013-01-27 05:24:00,
2013-01-27 00:29:00,72.0,58.2,30.24,NNW,338,6.9,6.9,62,0.00,CLR,,0.00,WeatherDisplay:10.37,2013-01-27 05:29:00,
2013-01-27 00:34:00,72.0,58.2,30.24,East,90,6.0,6.0,62,0.00,CLR,,0.00,WeatherDisplay:10.37,2013-01-27 05:34:00,
2013-01-27 00:39:00,72.0,58.7,30.24,South,180,4.6,4.6,63,0.00,CLR,,0.00,WeatherDisplay:10.37,2013-01-27 05:39:00,
2013-01-27 00:44:00,72.0,58.7,30.24,East,90,5.8,5.8,63,0.00,CLR,,0.00,WeatherDisplay:10.37,2013-01-27 05:44:00,
2013-01-27 00:49:00,72.0,58.2,30.24,SE,135,4.6,4.6,62,0.00,CLR,,0.00,WeatherDisplay:10.37,2013-01-27 05:49:00,
2013-01-27 00:54:00,72.0,58.2,30.24,NE,45,5.8,5.8,62,0.00,CLR,,0.00,WeatherDisplay:10.37,2013-01-27 05:54:00,
2013-01-27 00:59:00,72.0,58.2,30.24,ENE,68,6.4,6.4,62,0.00,CLR,,0.00,WeatherDisplay:10.37,2013-01-27 05:59:00,
2013-01-27 01:05:00,72.0,58.7,30.24,ENE,68,4.7,4.7,63,0.00,CLR,,0.00,WeatherDisplay:10.37,2013-01-27 06:05:00,
2013-01-27 01:10:00,72.0,58.2,30.24,East,90,4.6,4.6,62,0.00,CLR,,0.00,WeatherDisplay:10.37,2013-01-27 06:10:00,
2013-01-27 01:15:00,72.0,58.2,30.24,ENE,68,5.8,5.8,62,0.00,CLR,,0.00,WeatherDisplay:10.37,2013-01-27 06:15:00,
2013-01-27 01:20:00,71.8,58.1,30.24,ENE,77,3.0,6.0,62,0.00,CLR,,0.00,WeatherDisplay:10.37,2013-01-27 06:20:00,
2013-01-27 01:25:00,71.8,57.6,30.24,NNE,22,3.8,3.8,61,0.00,CLR,,0.00,WeatherDisplay:10.37,2013-01-27 06:25:00,
2013-01-27 01:30:00,71.8,57.6,30.24,East,90,3.6,3.6,61,0.00,CLR,,0.00,WeatherDisplay:10.37,2013-01-27 06:30:00,
2013-01-27 01:35:00,71.8,58.1,30.24,NE,45,5.9,5.9,62,0.00,CLR,,0.00,WeatherDisplay:10.37,2013-01-27 06:35:00,
2013-01-27 01:41:00,71.8,58.1,30.24,ESE,112,4.0,4.5,62,0.00,CLR,,0.00,WeatherDisplay:10.37,2013-01-27 06:41:00,
2013-01-27 01:46:00,71.8,58.1,30.24,North,0,4.6,4.6,62,0.00,CLR,,0.00,WeatherDisplay:10.37,2013-01-27 06:46:00,
2013-01-27 01:51:00,71.6,57.9,30.24,East,90,3.6,3.6,62,0.00,CLR,,0.00,WeatherDisplay:10.37,2013-01-27 06:51:00,
2013-01-27 01:56:00,71.8,58.1,30.24,SE,135,2.4,2.4,62,0.00,CLR,,0.00,WeatherDisplay:10.37,2013-01-27 06:56:00,
2013-01-27 02:01:00,71.6,57.4,30.24,NNE,22,3.5,3.5,61,0.00,CLR,,0.00,WeatherDisplay:10.37,2013-01-27 07:01:00,
2013-01-27 02:06:00,71.6,57.4,30.24,ENE,68,6.0,6.0,61,0.00,CLR,,0.00,WeatherDisplay:10.37,2013-01-27 07:06:00,
2013-01-27 02:13:00,71.6,57.4,30.24,NE,45,4.6,4.6,61,0.00,CLR,,0.00,WeatherDisplay:10.37,2013-01-27 07:13:00,
2013-01-27 02:18:00,71.6,57.4,30.21,NNE,22,4.6,4.6,61,0.00,CLR,,0.00,WeatherDisplay:10.37,2013-01-27 07:18:00,
2013-01-27 02:23:00,71.6,57.9,30.21,ENE,68,5.8,5.8,62,0.00,CLR,,0.00,WeatherDisplay:10.37,2013-01-27 07:23:00,
2013-01-27 02:28:00,71.6,57.9,30.21,North,0,4.0,4.0,62,0.00,CLR,,0.00,WeatherDisplay:10.37,2013-01-27 07:28:00,
2013-01-27 02:34:00,71.6,57.9,30.24,ENE,68,4.6,4.6,62,0.00,CLR,,0.00,WeatherDisplay:10.37,2013-01-27 07:34:00,
2013-01-27 02:39:00,71.6,57.9,30.24,ENE,68,4.6,4.6,62,0.00,CLR,,0.00,WeatherDisplay:10.37,2013-01-27 07:39:00,
2013-01-27 02:44:00,71.6,57.9,30.24,ENE,68,3.3,3.3,62,0.00,CLR,,0.00,WeatherDisplay:10.37,2013-01-27 07:44:00,
2013-01-27 02:50:00,71.4,57.7,30.21,East,90,3.5,3.5,62,0.00,CLR,,0.00,WeatherDisplay:10.37,2013-01-27 07:50:00,
2013-01-27 02:55:00,71.6,57.9,30.21,ENE,66,1.0,5.0,62,0.00,CLR,,0.00,WeatherDisplay:10.37,2013-01-27 07:55:00,
2013-01-27 03:00:00,71.6,57.9,30.21,NW,315,5.8,5.8,62,0.00,CLR,,0.00,WeatherDisplay:10.37,2013-01-27 08:00:00,
2013-01-27 03:05:00,71.6,57.9,30.21,NE,45,4.6,4.6,62,0.00,CLR,,0.00,WeatherDisplay:10.37,2013-01-27 08:05:00,
2013-01-27 03:10:00,71.4,58.2,30.21,NE,44,3.0,6.0,63,0.00,CLR,,0.00,WeatherDisplay:10.37,2013-01-27 08:10:00,
2013-01-27 03:15:00,71.4,58.2,30.21,NE,45,4.6,0.0,63,0.00,CLR,,0.00,WeatherDisplay:10.37,2013-01-27 08:15:00,
2013-01-27 03:21:00,71.4,58.2,30.21,NE,45,4.6,4.6,63,0.00,CLR,,0.00,WeatherDisplay:10.37,2013-01-27 08:21:00,
2013-01-27 03:26:00,71.4,58.2,30.21,NE,45,4.6,4.6,63,0.00,CLR,,0.00,WeatherDisplay:10.37,2013-01-27 08:26:00,
2013-01-27 03:31:00,71.4,58.2,30.21,NNE,22,2.3,2.3,63,0.00,CLR,,0.00,WeatherDisplay:10.37,2013-01-27 08:31:00,
2013-01-27 03:36:00,71.4,58.2,30.21,NE,45,2.3,2.3,63,0.00,CLR,,0.00,WeatherDisplay:10.37,2013-01-27 08:36:00,
2013-01-27 03:41:00,71.2,58.0,30.21,North,0,2.3,2.3,63,0.00,CLR,,0.00,WeatherDisplay:10.37,2013-01-27 08:41:00,
2013-01-27 03:46:00,71.1,57.8,30.21,East,90,4.6,4.6,63,0.00,CLR,,0.00,WeatherDisplay:10.37,2013-01-27 08:46:00,
2013-01-27 03:52:00,71.2,58.0,30.21,NE,45,6.9,6.9,63,0.00,CLR,,0.00,WeatherDisplay:10.37,2013-01-27 08:52:00,
2013-01-27 03:57:00,71.2,58.0,30.21,ENE,68,3.5,3.5,63,0.00,CLR,,0.00,WeatherDisplay:10.37,2013-01-27 08:57:00,
2013-01-27 04:02:00,71.2,58.4,30.21,East,90,3.5,3.5,64,0.00,CLR,,0.00,WeatherDisplay:10.37,2013-01-27 09:02:00,
2013-01-27 04:07:00,71.1,58.3,30.21,NNE,22,4.6,4.6,64,0.00,CLR,,0.00,WeatherDisplay:10.37,2013-01-27 09:07:00,
2013-01-27 04:12:00,70.9,58.1,30.21,North,0,2.3,0.0,64,0.00,CLR,,0.00,WeatherDisplay:10.37,2013-01-27 09:12:00,
2013-01-27 04:18:00,70.5,57.8,30.24,SE,135,5.8,5.8,64,0.00,CLR,,0.00,WeatherDisplay:10.37,2013-01-27 09:18:00,
2013-01-27 04:23:00,70.5,57.8,30.24,NNE,22,5.8,5.8,64,0.00,CLR,,0.00,WeatherDisplay:10.37,2013-01-27 09:23:00,
2013-01-27 04:28:00,70.9,58.1,30.24,NNE,22,3.5,3.5,64,0.00,CLR,,0.00,WeatherDisplay:10.37,2013-01-27 09:28:00,
2013-01-27 04:33:00,70.9,58.1,30.21,ENE,68,4.6,4.6,64,0.00,CLR,,0.00,WeatherDisplay:10.37,2013-01-27 09:33:00,
2013-01-27 04:38:00,70.5,58.2,30.21,NW,315,0.0,0.0,65,0.00,CLR,,0.00,WeatherDisplay:10.37,2013-01-27 09:38:00,
2013-01-27 04:43:00,70.0,57.7,30.21,WNW,292,0.0,0.0,65,0.00,CLR,,0.00,WeatherDisplay:10.37,2013-01-27 09:43:00,
2013-01-27 04:48:00,69.4,57.2,30.21,WNW,292,0.0,0.0,65,0.00,CLR,,0.00,WeatherDisplay:10.37,2013-01-27 09:48:00,
2013-01-27 04:54:00,69.4,57.6,30.21,North,0,0.0,0.0,66,0.00,CLR,,0.00,WeatherDisplay:10.37,2013-01-27 09:54:00,
2013-01-27 04:59:00,69.3,57.4,30.21,North,0,0.0,0.0,66,0.00,CLR,,0.00,WeatherDisplay:10.37,2013-01-27 09:59:00,
2013-01-27 05:04:00,69.3,57.4,30.18,North,0,0.0,0.0,66,0.00,CLR,,0.00,WeatherDisplay:10.37,2013-01-27 10:04:00,
2013-01-27 05:09:00,69.3,57.8,30.18,North,0,0.0,0.0,67,0.00,CLR,,0.00,WeatherDisplay:10.37,2013-01-27 10:09:00,
2013-01-27 05:14:00,69.3,57.8,30.18,WNW,292,0.0,0.0,67,0.00,CLR,,0.00,WeatherDisplay:10.37,2013-01-27 10:14:00,
2013-01-27 05:19:00,69.3,57.8,30.21,West,270,0.0,0.0,67,0.00,CLR,,0.00,WeatherDisplay:10.37,2013-01-27 10:19:00,
2013-01-27 05:25:00,68.9,57.5,30.21,NW,315,3.5,3.5,67,0.00,CLR,,0.00,WeatherDisplay:10.37,2013-01-27 10:25:00,
2013-01-27 05:30:00,69.1,58.1,30.21,North,0,0.0,0.0,68,0.00,CLR,,0.00,WeatherDisplay:10.37,2013-01-27 10:30:00,
2013-01-27 05:35:00,69.1,58.1,30.24,NW,315,2.3,0.0,68,0.00,CLR,,0.00,WeatherDisplay:10.37,2013-01-27 10:35:00,
2013-01-27 05:40:00,69.1,58.1,30.24,West,270,2.3,2.3,68,0.00,CLR,,0.00,WeatherDisplay:10.37,2013-01-27 10:40:00,
2013-01-27 05:46:00,68.9,57.9,30.24,West,270,4.6,4.6,68,0.00,CLR,,0.00,WeatherDisplay:10.37,2013-01-27 10:46:00,
2013-01-27 05:51:00,68.5,57.6,30.24,NW,315,2.3,2.3,68,0.00,CLR,,0.00,WeatherDisplay:10.37,2013-01-27 10:51:00,
2013-01-27 05:56:00,68.7,57.7,30.24,NNW,338,4.6,4.6,68,0.00,CLR,,0.00,WeatherDisplay:10.37,2013-01-27 10:56:00,
2013-01-27 06:01:00,68.9,57.9,30.24,North,0,4.6,4.6,68,0.00,CLR,,0.00,WeatherDisplay:10.37,2013-01-27 11:01:00,
2013-01-27 06:06:00,68.9,58.3,30.24,East,90,3.5,3.5,69,0.00,CLR,,0.00,WeatherDisplay:10.37,2013-01-27 11:06:00,
2013-01-27 06:11:00,69.6,59.0,30.24,NE,45,5.8,5.8,69,0.00,CLR,,0.00,WeatherDisplay:10.37,2013-01-27 11:11:00,
2013-01-27 06:17:00,69.8,59.2,30.24,ENE,68,4.6,4.6,69,0.00,CLR,,0.00,WeatherDisplay:10.37,2013-01-27 11:17:00,
2013-01-27 06:22:00,70.0,59.3,30.24,NNE,22,4.6,4.6,69,0.00,CLR,,0.00,WeatherDisplay:10.37,2013-01-27 11:22:00,
2013-01-27 06:27:00,70.2,59.5,30.24,NNE,22,8.1,8.1,69,0.00,CLR,,0.00,WeatherDisplay:10.37,2013-01-27 11:27:00,
2013-01-27 06:32:00,70.3,59.7,30.24,ENE,68,5.8,5.8,69,0.00,CLR,,0.00,WeatherDisplay:10.37,2013-01-27 11:32:00,
2013-01-27 06:37:00,70.5,59.9,30.24,North,0,4.6,4.6,69,0.00,CLR,,0.00,WeatherDisplay:10.37,2013-01-27 11:37:00,
2013-01-27 06:42:00,70.5,59.9,30.24,NE,45,4.0,4.0,69,0.00,CLR,,0.00,WeatherDisplay:10.37,2013-01-27 11:42:00,
2013-01-27 06:47:00,70.5,59.4,30.27,NW,315,3.5,3.5,68,0.00,CLR,,0.00,WeatherDisplay:10.37,2013-01-27 11:47:00,
2013-01-27 06:52:00,70.0,58.9,30.27,NW,315,2.3,0.0,68,0.00,CLR,,0.00,WeatherDisplay:10.37,2013-01-27 11:52:00,
2013-01-27 06:58:00,69.6,58.6,30.27,North,0,3.6,3.8,68,0.00,CLR,,0.00,WeatherDisplay:10.37,2013-01-27 11:58:00,
2013-01-27 07:03:00,69.6,58.6,30.27,NW,315,4.7,4.7,68,0.00,CLR,,0.00,WeatherDisplay:10.37,2013-01-27 12:03:00,
2013-01-27 07:08:00,68.7,57.7,30.27,North,0,4.6,4.6,68,0.00,CLR,,0.00,WeatherDisplay:10.37,2013-01-27 12:08:00,
2013-01-27 07:13:00,68.7,57.7,30.27,NW,315,4.6,4.6,68,0.00,CLR,,0.00,WeatherDisplay:10.37,2013-01-27 12:13:00,
2013-01-27 07:18:00,68.7,57.7,30.27,North,0,2.4,2.4,68,0.00,CLR,,0.00,WeatherDisplay:10.37,2013-01-27 12:18:00,
2013-01-27 07:23:00,68.5,57.6,30.27,North,0,3.5,3.5,68,0.00,CLR,,0.00,WeatherDisplay:10.37,2013-01-27 12:23:00,
2013-01-27 07:29:00,68.4,57.4,30.27,NNW,338,4.0,4.0,68,0.00,CLR,,0.00,WeatherDisplay:10.37,2013-01-27 12:29:00,
2013-01-27 07:34:00,68.2,57.2,30.30,NW,315,4.3,4.3,68,0.00,CLR,,0.00,WeatherDisplay:10.37,2013-01-27 12:34:00,
2013-01-27 07:39:00,68.2,57.2,30.30,NW,315,2.9,2.9,68,0.00,CLR,,0.00,WeatherDisplay:10.37,2013-01-27 12:39:00,
2013-01-27 07:44:00,68.2,57.2,30.30,North,0,3.5,3.5,68,0.00,CLR,,0.00,WeatherDisplay:10.37,2013-01-27 12:44:00,
2013-01-27 07:49:00,68.9,58.3,30.27,North,0,4.0,4.0,69,0.00,CLR,,0.00,WeatherDisplay:10.37,2013-01-27 12:49:00,
2013-01-27 07:54:00,68.9,58.3,30.27,North,0,3.5,3.5,69,0.00,CLR,,0.00,WeatherDisplay:10.37,2013-01-27 12:54:00,
2013-01-27 07:59:00,69.3,58.2,30.27,NW,315,5.8,5.8,68,0.00,CLR,,0.00,WeatherDisplay:10.37,2013-01-27 12:59:00,
2013-01-27 08:05:00,69.4,58.4,30.27,NW,315,5.8,5.8,68,0.00,CLR,,0.00,WeatherDisplay:10.37,2013-01-27 13:05:00,
2013-01-27 08:10:00,69.6,58.6,30.27,NNW,338,3.5,3.5,68,0.00,CLR,,0.00,WeatherDisplay:10.37,2013-01-27 13:10:00,
2013-01-27 08:15:00,69.8,58.8,30.27,North,0,3.1,3.1,68,0.00,CLR,,0.00,WeatherDisplay:10.37,2013-01-27 13:15:00,
2013-01-27 08:20:00,69.8,58.8,30.27,NW,315,1.4,1.4,68,0.00,CLR,,0.00,WeatherDisplay:10.37,2013-01-27 13:20:00,
2013-01-27 08:25:00,70.0,58.9,30.27,NNW,338,0.0,0.0,68,0.00,CLR,,0.00,WeatherDisplay:10.37,2013-01-27 13:25:00,
2013-01-27 08:30:00,70.0,58.5,30.27,North,0,0.0,0.0,67,0.00,CLR,,0.00,WeatherDisplay:10.37,2013-01-27 13:30:00,
2013-01-27 08:36:00,70.5,59.0,30.27,ESE,112,3.6,3.6,67,0.00,CLR,,0.00,WeatherDisplay:10.37,2013-01-27 13:36:00,
2013-01-27 08:41:00,70.9,59.4,30.27,ENE,68,5.8,5.8,67,0.00,CLR,,0.00,WeatherDisplay:10.37,2013-01-27 13:41:00,
2013-01-27 08:46:00,71.2,59.3,30.27,NE,45,4.6,4.6,66,0.00,CLR,,0.00,WeatherDisplay:10.37,2013-01-27 13:46:00,
2013-01-27 08:51:00,71.8,59.4,30.27,NE,45,4.6,4.6,65,0.00,CLR,,0.00,WeatherDisplay:10.37,2013-01-27 13:51:00,
2013-01-27 08:56:00,72.0,59.6,30.27,NE,45,5.9,5.9,65,0.00,CLR,,0.00,WeatherDisplay:10.37,2013-01-27 13:56:00,
2013-01-27 09:01:00,72.1,59.7,30.27,NE,45,4.6,4.6,65,0.00,CLR,,0.00,WeatherDisplay:10.37,2013-01-27 14:01:00,
2013-01-27 09:07:00,72.5,59.2,30.27,NE,45,5.8,5.8,63,0.00,CLR,,0.00,WeatherDisplay:10.37,2013-01-27 14:07:00,
2013-01-27 09:12:00,72.5,59.2,30.27,NE,45,4.6,4.6,63,0.00,CLR,,0.00,WeatherDisplay:10.37,2013-01-27 14:12:00,
2013-01-27 09:17:00,72.7,59.4,30.30,ENE,68,5.9,5.9,63,0.00,CLR,,0.00,WeatherDisplay:10.37,2013-01-27 14:17:00,
2013-01-27 09:22:00,73.0,59.7,30.30,East,90,7.6,7.6,63,0.00,CLR,,0.00,WeatherDisplay:10.37,2013-01-27 14:22:00,
2013-01-27 09:27:00,73.0,59.7,30.30,East,90,5.8,5.8,63,0.00,CLR,,0.00,WeatherDisplay:10.37,2013-01-27 14:27:00,
2013-01-27 09:33:00,73.2,59.4,30.30,NNE,22,5.6,5.6,62,0.00,CLR,,0.00,WeatherDisplay:10.37,2013-01-27 14:33:00,
2013-01-27 09:38:00,73.4,59.1,30.30,NE,45,10.4,10.4,61,0.00,CLR,,0.00,WeatherDisplay:10.37,2013-01-27 14:38:00,
2013-01-27 09:43:00,73.6,59.3,30.30,ENE,68,7.6,7.6,61,0.00,CLR,,0.00,WeatherDisplay:10.37,2013-01-27 14:43:00,
2013-01-27 09:48:00,73.4,59.1,30.30,East,90,10.5,10.5,61,0.00,CLR,,0.00,WeatherDisplay:10.37,2013-01-27 14:48:00,
2013-01-27 09:53:00,73.8,59.0,30.30,NE,45,5.4,5.4,60,0.00,CLR,,0.00,WeatherDisplay:10.37,2013-01-27 14:53:00,
2013-01-27 09:58:00,73.9,59.2,30.30,North,0,8.1,8.1,60,0.00,CLR,,0.00,WeatherDisplay:10.37,2013-01-27 14:58:00,
2013-01-27 10:04:00,74.1,59.3,30.30,SE,135,4.0,4.0,60,0.00,CLR,,0.00,WeatherDisplay:10.37,2013-01-27 15:04:00,
2013-01-27 10:09:00,74.1,58.9,30.30,East,90,5.8,5.8,59,0.00,CLR,,0.00,WeatherDisplay:10.37,2013-01-27 15:09:00,
2013-01-27 10:14:00,74.1,58.9,30.30,NE,45,8.5,8.5,59,0.00,CLR,,0.00,WeatherDisplay:10.37,2013-01-27 15:14:00,
2013-01-27 10:19:00,74.5,59.2,30.33,East,90,5.8,5.8,59,0.00,CLR,,0.00,WeatherDisplay:10.37,2013-01-27 15:19:00,
2013-01-27 10:24:00,74.7,59.4,30.33,East,90,5.8,5.8,59,0.00,CLR,,0.00,WeatherDisplay:10.37,2013-01-27 15:24:00,
2013-01-27 10:29:00,74.8,60.0,30.33,ENE,68,5.8,5.8,60,0.00,CLR,,0.00,WeatherDisplay:10.37,2013-01-27 15:29:00,
2013-01-27 10:34:00,74.8,59.5,30.33,NE,45,7.6,7.6,59,0.00,CLR,,0.00,WeatherDisplay:10.37,2013-01-27 15:34:00,
2013-01-27 10:39:00,74.8,59.5,30.33,NE,45,8.1,8.1,59,0.00,CLR,,0.00,WeatherDisplay:10.37,2013-01-27 15:39:00,
2013-01-27 10:45:00,75.0,59.2,30.33,East,90,5.4,5.4,58,0.00,CLR,,0.00,WeatherDisplay:10.37,2013-01-27 15:45:00,
2013-01-27 10:50:00,75.2,58.9,30.33,East,90,5.8,5.8,57,0.00,CLR,,0.00,WeatherDisplay:10.37,2013-01-27 15:50:00,
2013-01-27 10:55:00,75.3,59.0,30.33,NE,55,5.0,9.0,57,0.00,CLR,,0.00,WeatherDisplay:10.37,2013-01-27 15:55:00,
2013-01-27 11:00:00,75.4,59.1,30.33,ESE,112,6.7,6.7,57,0.00,CLR,,0.00,WeatherDisplay:10.37,2013-01-27 16:00:00,
2013-01-27 11:05:00,75.4,59.1,30.33,East,90,4.6,4.6,57,0.00,CLR,,0.00,WeatherDisplay:10.37,2013-01-27 16:05:00,
2013-01-27 11:10:00,75.6,59.3,30.33,North,0,5.8,5.8,57,0.00,CLR,,0.00,WeatherDisplay:10.37,2013-01-27 16:10:00,
2013-01-27 11:15:00,75.7,59.4,30.33,North,0,8.1,8.1,57,0.00,CLR,,0.00,WeatherDisplay:10.37,2013-01-27 16:15:00,
2013-01-27 11:21:00,75.6,58.3,30.33,South,180,6.0,6.0,55,0.00,CLR,,0.00,WeatherDisplay:10.37,2013-01-27 16:21:00,
2013-01-27 11:26:00,75.6,58.3,30.33,ESE,112,5.8,5.8,55,0.00,CLR,,0.00,WeatherDisplay:10.37,2013-01-27 16:26:00,
2013-01-27 11:31:00,75.6,58.3,30.33,ENE,70,5.0,8.0,55,0.00,CLR,,0.00,WeatherDisplay:10.37,2013-01-27 16:31:00,
2013-01-27 11:36:00,75.9,58.6,30.30,East,90,7.4,7.4,55,0.00,CLR,,0.00,WeatherDisplay:10.37,2013-01-27 16:36:00,
2013-01-27 11:41:00,75.9,58.6,30.30,ENE,68,6.9,6.9,55,0.00,CLR,,0.00,WeatherDisplay:10.37,2013-01-27 16:41:00,
2013-01-27 11:46:00,75.9,58.1,30.33,North,0,6.9,6.9,54,0.00,CLR,,0.00,WeatherDisplay:10.37,2013-01-27 16:46:00,
2013-01-27 11:51:00,75.9,58.6,30.33,SE,135,9.2,9.2,55,0.00,CLR,,0.00,WeatherDisplay:10.37,2013-01-27 16:51:00,
2013-01-27 11:56:00,76.1,58.8,30.33,East,90,7.4,7.4,55,0.00,CLR,,0.00,WeatherDisplay:10.37,2013-01-27 16:56:00,
2013-01-27 12:01:00,76.1,58.8,30.30,NE,45,6.9,6.9,55,0.00,CLR,,0.00,WeatherDisplay:10.37,2013-01-27 17:01:00,
2013-01-27 12:06:00,76.3,58.4,30.30,East,90,5.8,5.8,54,0.00,CLR,,0.00,WeatherDisplay:10.37,2013-01-27 17:06:00,
2013-01-27 12:11:00,76.3,57.9,30.30,East,90,9.4,9.4,53,0.00,CLR,,0.00,WeatherDisplay:10.37,2013-01-27 17:11:00,
2013-01-27 12:16:00,76.3,58.4,30.30,NE,45,5.8,5.8,54,0.00,CLR,,0.00,WeatherDisplay:10.37,2013-01-27 17:16:00,
2013-01-27 12:22:00,76.5,58.6,30.30,NE,45,6.9,6.9,54,0.00,CLR,,0.00,WeatherDisplay:10.37,2013-01-27 17:22:00,
2013-01-27 12:27:00,76.5,57.5,30.30,East,90,6.9,6.9,52,0.00,CLR,,0.00,WeatherDisplay:10.37,2013-01-27 17:27:00,
2013-01-27 12:32:00,76.3,57.9,30.30,ESE,112,5.9,5.9,53,0.00,CLR,,0.00,WeatherDisplay:10.37,2013-01-27 17:32:00,
2013-01-27 12:37:00,76.5,58.1,30.30,NE,45,8.1,8.1,53,0.00,CLR,,0.00,WeatherDisplay:10.37,2013-01-27 17:37:00,
2013-01-27 12:42:00,76.5,57.0,30.30,North,0,8.1,8.1,51,0.00,CLR,,0.00,WeatherDisplay:10.37,2013-01-27 17:42:00,
2013-01-27 12:47:00,76.5,57.5,30.30,NE,45,8.1,8.1,52,0.00,CLR,,0.00,WeatherDisplay:10.37,2013-01-27 17:47:00,
2013-01-27 12:52:00,76.6,58.2,30.30,NNE,22,8.1,8.1,53,0.00,CLR,,0.00,WeatherDisplay:10.37,2013-01-27 17:52:00,
2013-01-27 12:58:00,76.8,57.9,30.30,East,90,6.4,6.4,52,0.00,CLR,,0.00,WeatherDisplay:10.37,2013-01-27 17:58:00,
2013-01-27 13:03:00,77.0,58.0,30.27,ENE,68,6.2,6.2,52,0.00,CLR,,0.00,WeatherDisplay:10.37,2013-01-27 18:03:00,
2013-01-27 13:08:00,76.8,57.9,30.27,North,0,10.4,10.4,52,0.00,CLR,,0.00,WeatherDisplay:10.37,2013-01-27 18:08:00,
2013-01-27 13:13:00,77.0,58.0,30.27,East,90,6.9,6.9,52,0.00,CLR,,0.00,WeatherDisplay:10.37,2013-01-27 18:13:00,
2013-01-27 13:18:00,76.6,57.2,30.27,South,180,5.9,5.9,51,0.00,CLR,,0.00,WeatherDisplay:10.37,2013-01-27 18:18:00,
2013-01-27 13:24:00,76.8,57.3,30.27,East,90,8.5,8.5,51,0.00,CLR,,0.00,WeatherDisplay:10.37,2013-01-27 18:24:00,
2013-01-27 13:29:00,76.8,57.3,30.27,NE,45,8.1,8.1,51,0.00,CLR,,0.00,WeatherDisplay:10.37,2013-01-27 18:29:00,
2013-01-27 13:34:00,76.6,57.2,30.27,West,270,9.2,9.2,51,0.00,CLR,,0.00,WeatherDisplay:10.37,2013-01-27 18:34:00,
2013-01-27 13:39:00,76.5,56.4,30.27,NE,45,6.9,6.9,50,0.00,CLR,,0.00,WeatherDisplay:10.37,2013-01-27 18:39:00,
2013-01-27 13:44:00,77.0,57.5,30.27,NW,315,8.1,8.1,51,0.00,CLR,,0.00,WeatherDisplay:10.37,2013-01-27 18:44:00,
2013-01-27 13:49:00,77.2,57.7,30.27,ENE,68,4.6,4.6,51,0.00,CLR,,0.00,WeatherDisplay:10.37,2013-01-27 18:49:00,
2013-01-27 13:54:00,77.2,57.1,30.27,ENE,68,10.0,10.0,50,0.00,CLR,,0.00,WeatherDisplay:10.37,2013-01-27 18:54:00,
2013-01-27 13:59:00,77.4,57.3,30.27,NE,45,5.8,5.8,50,0.00,CLR,,0.00,WeatherDisplay:10.37,2013-01-27 18:59:00,
2013-01-27 14:04:00,77.0,55.8,30.27,East,90,7.1,7.1,48,0.00,CLR,,0.00,WeatherDisplay:10.37,2013-01-27 19:04:00,
2013-01-27 14:09:00,77.0,55.8,30.27,East,90,6.9,6.9,48,0.00,CLR,,0.00,WeatherDisplay:10.37,2013-01-27 19:09:00,
2013-01-27 14:15:00,77.2,56.5,30.27,NE,45,5.8,5.8,49,0.00,CLR,,0.00,WeatherDisplay:10.37,2013-01-27 19:15:00,
2013-01-27 14:20:00,77.4,56.7,30.24,East,90,5.8,5.8,49,0.00,CLR,,0.00,WeatherDisplay:10.37,2013-01-27 19:20:00,
2013-01-27 14:25:00,77.2,56.0,30.24,East,90,5.8,5.8,48,0.00,CLR,,0.00,WeatherDisplay:10.37,2013-01-27 19:25:00,
2013-01-27 14:30:00,77.4,56.7,30.24,East,90,9.2,9.2,49,0.00,CLR,,0.00,WeatherDisplay:10.37,2013-01-27 19:30:00,
2013-01-27 14:35:00,77.5,56.9,30.27,East,90,9.2,9.2,49,0.00,CLR,,0.00,WeatherDisplay:10.37,2013-01-27 19:35:00,
2013-01-27 14:40:00,77.5,56.9,30.27,NE,45,6.9,6.9,49,0.00,CLR,,0.00,WeatherDisplay:10.37,2013-01-27 19:40:00,
2013-01-27 14:45:00,77.5,56.9,30.27,ENE,65,6.0,10.0,49,0.00,CLR,,0.00,WeatherDisplay:10.37,2013-01-27 19:45:00,
2013-01-27 14:51:00,77.5,56.3,30.27,NNE,22,5.8,5.8,48,0.00,CLR,,0.00,WeatherDisplay:10.37,2013-01-27 19:51:00,
2013-01-27 14:56:00,77.5,56.3,30.27,South,180,6.9,6.9,48,0.00,CLR,,0.00,WeatherDisplay:10.37,2013-01-27 19:56:00,
2013-01-27 15:01:00,77.7,57.0,30.27,ENE,68,5.8,5.8,49,0.00,CLR,,0.00,WeatherDisplay:10.37,2013-01-27 20:01:00,
2013-01-27 15:06:00,77.9,57.2,30.27,NNE,22,6.9,6.9,49,0.00,CLR,,0.00,WeatherDisplay:10.37,2013-01-27 20:06:00,
2013-01-27 15:11:00,78.1,57.4,30.27,NW,315,5.8,5.8,49,0.00,CLR,,0.00,WeatherDisplay:10.37,2013-01-27 20:11:00,
2013-01-27 15:16:00,77.4,55.6,30.27,ESE,112,8.1,8.1,47,0.00,CLR,,0.00,WeatherDisplay:10.37,2013-01-27 20:16:00,
2013-01-27 15:21:00,77.4,56.1,30.27,East,90,6.4,6.4,48,0.00,CLR,,0.00,WeatherDisplay:10.37,2013-01-27 20:21:00,
2013-01-27 15:26:00,77.9,56.6,30.27,ESE,112,3.8,3.8,48,0.00,CLR,,0.00,WeatherDisplay:10.37,2013-01-27 20:26:00,
2013-01-27 15:32:00,77.7,55.9,30.27,NE,45,5.6,5.6,47,0.00,CLR,,0.00,WeatherDisplay:10.37,2013-01-27 20:32:00,
2013-01-27 15:37:00,78.1,56.2,30.27,NE,45,5.8,5.8,47,0.00,CLR,,0.00,WeatherDisplay:10.37,2013-01-27 20:37:00,
2013-01-27 15:42:00,77.9,56.0,30.27,ENE,68,8.1,8.1,47,0.00,CLR,,0.00,WeatherDisplay:10.37,2013-01-27 20:42:00,
2013-01-27 15:47:00,78.3,56.4,30.27,East,90,6.9,6.9,47,0.00,CLR,,0.00,WeatherDisplay:10.37,2013-01-27 20:47:00,
2013-01-27 15:52:00,77.9,55.5,30.27,NE,45,6.9,6.9,46,0.00,CLR,,0.00,WeatherDisplay:10.37,2013-01-27 20:52:00,
2013-01-27 15:57:00,78.3,56.4,30.27,ENE,68,6.9,6.9,47,0.00,CLR,,0.00,WeatherDisplay:10.37,2013-01-27 20:57:00,
2013-01-27 16:02:00,78.4,56.5,30.27,East,90,9.2,9.2,47,0.00,CLR,,0.00,WeatherDisplay:10.37,2013-01-27 21:02:00,
2013-01-27 16:07:00,78.3,56.4,30.27,ESE,112,8.1,8.1,47,0.00,CLR,,0.00,WeatherDisplay:10.37,2013-01-27 21:07:00,
2013-01-27 16:12:00,78.4,57.1,30.27,NE,45,8.1,8.1,48,0.00,CLR,,0.00,WeatherDisplay:10.37,2013-01-27 21:12:00,
2013-01-27 16:17:00,78.1,56.2,30.27,ENE,68,7.1,7.1,47,0.00,CLR,,0.00,WeatherDisplay:10.37,2013-01-27 21:17:00,
2013-01-27 16:23:00,78.4,57.1,30.27,North,0,5.8,5.8,48,0.00,CLR,,0.00,WeatherDisplay:10.37,2013-01-27 21:23:00,
2013-01-27 16:28:00,78.3,56.4,30.27,NE,45,8.1,8.1,47,0.00,CLR,,0.00,WeatherDisplay:10.37,2013-01-27 21:28:00,
2013-01-27 16:33:00,78.4,56.5,30.27,ENE,68,8.1,8.1,47,0.00,CLR,,0.00,WeatherDisplay:10.37,2013-01-27 21:33:00,
2013-01-27 16:38:00,78.4,56.5,30.27,East,90,8.1,8.1,47,0.00,CLR,,0.00,WeatherDisplay:10.37,2013-01-27 21:38:00,
2013-01-27 16:43:00,78.6,57.3,30.27,ENE,68,7.6,7.6,48,0.00,CLR,,0.00,WeatherDisplay:10.37,2013-01-27 21:43:00,
2013-01-27 16:48:00,78.4,56.5,30.27,East,90,10.4,10.4,47,0.00,CLR,,0.00,WeatherDisplay:10.37,2013-01-27 21:48:00,
2013-01-27 16:53:00,78.3,56.4,30.27,East,90,8.1,8.1,47,0.00,CLR,,0.00,WeatherDisplay:10.37,2013-01-27 21:53:00,
2013-01-27 16:59:00,78.4,56.5,30.27,East,90,8.5,8.5,47,0.00,CLR,,0.00,WeatherDisplay:10.37,2013-01-27 21:59:00,
2013-01-27 17:04:00,77.9,56.0,30.27,ENE,68,5.6,5.6,47,0.00,CLR,,0.00,WeatherDisplay:10.37,2013-01-27 22:04:00,
2013-01-27 17:09:00,77.9,56.0,30.27,NE,45,5.8,5.8,47,0.00,CLR,,0.00,WeatherDisplay:10.37,2013-01-27 22:09:00,
2013-01-27 17:14:00,77.7,55.9,30.27,ENE,68,8.1,8.1,47,0.00,CLR,,0.00,WeatherDisplay:10.37,2013-01-27 22:14:00,
2013-01-27 17:20:00,77.7,55.9,30.27,ESE,112,6.9,6.9,47,0.00,CLR,,0.00,WeatherDisplay:10.37,2013-01-27 22:20:00,
2013-01-27 17:25:00,77.7,55.9,30.27,ENE,75,5.0,7.0,47,0.00,CLR,,0.00,WeatherDisplay:10.37,2013-01-27 22:25:00,
2013-01-27 17:30:00,77.0,55.2,30.27,NE,45,2.9,6.0,47,0.00,CLR,,0.00,WeatherDisplay:10.37,2013-01-27 22:30:00,
2013-01-27 17:35:00,76.6,55.5,30.30,ENE,68,6.9,6.9,48,0.00,CLR,,0.00,WeatherDisplay:10.37,2013-01-27 22:35:00,
2013-01-27 17:40:00,76.8,56.2,30.30,ENE,68,6.9,6.9,49,0.00,CLR,,0.00,WeatherDisplay:10.37,2013-01-27 22:40:00,
2013-01-27 17:45:00,76.6,55.4,30.30,ENE,67,3.0,9.0,48,0.00,CLR,,0.00,WeatherDisplay:10.37,2013-01-27 22:45:00,
2013-01-27 17:51:00,76.5,55.9,30.27,East,90,6.9,6.9,49,0.00,CLR,,0.00,WeatherDisplay:10.37,2013-01-27 22:51:00,
2013-01-27 17:56:00,76.1,55.5,30.27,SE,135,6.9,6.9,49,0.00,CLR,,0.00,WeatherDisplay:10.37,2013-01-27 22:56:00,
2013-01-27 18:01:00,75.7,55.8,30.27,East,90,6.9,6.9,50,0.00,CLR,,0.00,WeatherDisplay:10.37,2013-01-27 23:01:00,
2013-01-27 18:06:00,75.7,55.8,30.27,East,90,8.1,8.1,50,0.00,CLR,,0.00,WeatherDisplay:10.37,2013-01-27 23:06:00,
2013-01-27 18:11:00,75.6,55.6,30.27,East,90,8.1,8.1,50,0.00,CLR,,0.00,WeatherDisplay:10.37,2013-01-27 23:11:00,
2013-01-27 18:16:00,75.4,56.0,30.30,ESE,112,5.8,5.8,51,0.00,CLR,,0.00,WeatherDisplay:10.37,2013-01-27 23:16:00,
2013-01-27 18:21:00,75.4,56.5,30.30,East,90,6.9,6.9,52,0.00,CLR,,0.00,WeatherDisplay:10.37,2013-01-27 23:21:00,
2013-01-27 18:27:00,75.4,56.5,30.30,SE,135,10.7,10.7,52,0.00,CLR,,0.00,WeatherDisplay:10.37,2013-01-27 23:27:00,
2013-01-27 18:32:00,75.2,56.4,30.30,ENE,68,5.8,5.8,52,0.00,CLR,,0.00,WeatherDisplay:10.37,2013-01-27 23:32:00,
2013-01-27 18:37:00,75.0,56.7,30.30,NE,45,10.4,10.4,53,0.00,CLR,,0.00,WeatherDisplay:10.37,2013-01-27 23:37:00,
2013-01-27 18:42:00,74.8,56.6,30.30,ENE,68,6.9,6.9,53,0.00,CLR,,0.00,WeatherDisplay:10.37,2013-01-27 23:42:00,
2013-01-27 18:47:00,75.0,57.8,30.27,SE,135,9.2,9.2,55,0.00,CLR,,0.00,WeatherDisplay:10.37,2013-01-27 23:47:00,
2013-01-27 18:52:00,74.8,57.6,30.27,SE,135,4.6,4.6,55,0.00,CLR,,0.00,WeatherDisplay:10.37,2013-01-27 23:52:00,
2013-01-27 18:57:00,74.7,57.4,30.27,NNE,22,5.8,5.8,55,0.00,CLR,,0.00,WeatherDisplay:10.37,2013-01-27 23:57:00,
2013-01-27 19:02:00,74.7,57.9,30.30,ENE,68,6.9,6.9,56,0.00,CLR,,0.00,WeatherDisplay:10.37,2013-01-28 00:02:00,
2013-01-27 19:07:00,74.7,57.9,30.30,ENE,68,6.9,6.9,56,0.00,CLR,,0.00,WeatherDisplay:10.37,2013-01-28 00:07:00,
2013-01-27 19:13:00,74.7,57.9,30.30,NE,45,8.1,8.1,56,0.00,CLR,,0.00,WeatherDisplay:10.37,2013-01-28 00:13:00,
2013-01-27 19:18:00,74.5,57.8,30.30,ENE,68,9.2,9.2,56,0.00,CLR,,0.00,WeatherDisplay:10.37,2013-01-28 00:18:00,
2013-01-27 19:23:00,74.5,58.2,30.30,ENE,68,9.2,9.2,57,0.00,CLR,,0.00,WeatherDisplay:10.37,2013-01-28 00:23:00,
2013-01-27 19:28:00,74.3,58.1,30.30,East,90,6.9,6.9,57,0.00,CLR,,0.00,WeatherDisplay:10.37,2013-01-28 00:28:00,
2013-01-27 19:33:00,74.3,58.6,30.30,ENE,68,8.1,8.1,58,0.00,CLR,,0.00,WeatherDisplay:10.37,2013-01-28 00:33:00,
2013-01-27 19:38:00,74.3,58.6,30.30,NE,45,8.1,8.1,58,0.00,CLR,,0.00,WeatherDisplay:10.37,2013-01-28 00:38:00,
2013-01-27 19:44:00,74.1,58.4,30.30,ESE,112,8.1,8.1,58,0.00,CLR,,0.00,WeatherDisplay:10.37,2013-01-28 00:44:00,
2013-01-27 19:49:00,74.1,58.4,30.30,NE,45,10.4,10.4,58,0.00,CLR,,0.00,WeatherDisplay:10.37,2013-01-28 00:49:00,
2013-01-27 19:54:00,74.1,58.4,30.30,East,90,8.1,8.1,58,0.00,CLR,,0.00,WeatherDisplay:10.37,2013-01-28 00:54:00,
2013-01-27 19:59:00,74.1,58.9,30.30,ENE,68,6.9,6.9,59,0.00,CLR,,0.00,WeatherDisplay:10.37,2013-01-28 00:59:00,
2013-01-27 20:04:00,74.1,59.3,30.30,SE,135,9.2,9.2,60,0.00,CLR,,0.00,WeatherDisplay:10.37,2013-01-28 01:04:00,
2013-01-27 20:09:00,74.1,59.3,30.30,ENE,68,9.2,9.2,60,0.00,CLR,,0.00,WeatherDisplay:10.37,2013-01-28 01:09:00,
2013-01-27 20:14:00,73.9,59.2,30.30,South,180,4.9,4.9,60,0.00,CLR,,0.00,WeatherDisplay:10.37,2013-01-28 01:14:00,
2013-01-27 20:19:00,74.1,59.3,30.30,ENE,68,10.4,10.4,60,0.00,CLR,,0.00,WeatherDisplay:10.37,2013-01-28 01:19:00,
2013-01-27 20:24:00,73.9,59.2,30.30,South,180,6.9,6.9,60,0.00,CLR,,0.00,WeatherDisplay:10.37,2013-01-28 01:24:00,
2013-01-27 20:29:00,73.9,59.6,30.30,ESE,112,10.4,10.4,61,0.00,CLR,,0.00,WeatherDisplay:10.37,2013-01-28 01:29:00,
2013-01-27 20:34:00,73.9,59.6,30.33,ESE,112,10.4,10.4,61,0.00,CLR,,0.00,WeatherDisplay:10.37,2013-01-28 01:34:00,
2013-01-27 20:40:00,73.9,59.6,30.33,ENE,68,9.2,9.2,61,0.00,CLR,,0.00,WeatherDisplay:10.37,2013-01-28 01:40:00,
2013-01-27 20:45:00,73.9,59.6,30.33,ENE,68,8.1,8.1,61,0.00,CLR,,0.00,WeatherDisplay:10.37,2013-01-28 01:45:00,
2013-01-27 20:50:00,73.9,60.1,30.30,ENE,77,7.0,10.0,62,0.00,CLR,,0.00,WeatherDisplay:10.37,2013-01-28 01:50:00,
2013-01-27 20:55:00,73.9,60.1,30.30,ENE,68,9.2,9.2,62,0.00,CLR,,0.00,WeatherDisplay:10.37,2013-01-28 01:55:00,
2013-01-27 21:00:00,73.9,60.1,30.30,SE,135,9.2,9.2,62,0.00,CLR,,0.00,WeatherDisplay:10.37,2013-01-28 02:00:00,
2013-01-27 21:06:00,73.9,60.1,30.30,ESE,112,7.4,7.4,62,0.00,CLR,,0.00,WeatherDisplay:10.37,2013-01-28 02:06:00,
2013-01-27 21:11:00,73.9,60.1,30.30,ESE,112,8.7,8.7,62,0.00,CLR,,0.00,WeatherDisplay:10.37,2013-01-28 02:11:00,
2013-01-27 21:16:00,73.8,59.9,30.33,East,90,9.2,9.2,62,0.00,CLR,,0.00,WeatherDisplay:10.37,2013-01-28 02:16:00,
2013-01-27 21:21:00,73.8,59.9,30.33,NE,45,8.7,8.7,62,0.00,CLR,,0.00,WeatherDisplay:10.37,2013-01-28 02:21:00,
2013-01-27 21:26:00,73.8,59.9,30.33,ENE,68,11.5,11.5,62,0.00,CLR,,0.00,WeatherDisplay:10.37,2013-01-28 02:26:00,
2013-01-27 21:32:00,73.8,60.4,30.33,East,90,9.2,9.2,63,0.00,CLR,,0.00,WeatherDisplay:10.37,2013-01-28 02:32:00,
2013-01-27 21:37:00,73.8,60.4,30.33,SSE,158,10.4,10.4,63,0.00,CLR,,0.00,WeatherDisplay:10.37,2013-01-28 02:37:00,
2013-01-27 21:42:00,73.8,60.4,30.33,East,90,8.1,8.1,63,0.00,CLR,,0.00,WeatherDisplay:10.37,2013-01-28 02:42:00,
2013-01-27 21:47:00,73.8,60.4,30.33,East,90,8.7,8.7,63,0.00,CLR,,0.00,WeatherDisplay:10.37,2013-01-28 02:47:00,
2013-01-27 21:53:00,73.8,60.4,30.33,NE,45,9.2,9.2,63,0.00,CLR,,0.00,WeatherDisplay:10.37,2013-01-28 02:53:00,
2013-01-27 21:58:00,73.8,60.4,30.33,East,90,8.1,8.1,63,0.00,CLR,,0.00,WeatherDisplay:10.37,2013-01-28 02:58:00,
2013-01-27 22:03:00,73.6,60.2,30.33,NE,45,10.5,10.5,63,0.00,CLR,,0.00,WeatherDisplay:10.37,2013-01-28 03:03:00,
2013-01-27 22:08:00,73.6,60.6,30.33,East,90,10.4,10.4,64,0.00,CLR,,0.00,WeatherDisplay:10.37,2013-01-28 03:08:00,
2013-01-27 22:13:00,73.6,60.6,30.33,East,90,6.9,6.9,64,0.00,CLR,,0.00,WeatherDisplay:10.37,2013-01-28 03:13:00,
2013-01-27 22:18:00,73.6,60.6,30.33,NE,45,11.5,11.5,64,0.00,CLR,,0.00,WeatherDisplay:10.37,2013-01-28 03:18:00,
2013-01-27 22:23:00,73.6,60.6,30.33,North,0,10.4,10.4,64,0.00,CLR,,0.00,WeatherDisplay:10.37,2013-01-28 03:23:00,
2013-01-27 22:29:00,73.6,60.6,30.33,SSE,158,9.2,9.2,64,0.00,CLR,,0.00,WeatherDisplay:10.37,2013-01-28 03:29:00,
2013-01-27 22:34:00,73.6,61.1,30.33,NE,45,8.1,8.1,65,0.00,CLR,,0.00,WeatherDisplay:10.37,2013-01-28 03:34:00,
2013-01-27 22:39:00,73.6,61.1,30.33,South,180,11.5,11.5,65,0.00,CLR,,0.00,WeatherDisplay:10.37,2013-01-28 03:39:00,
2013-01-27 22:44:00,73.6,60.6,30.33,North,0,7.8,7.8,64,0.00,CLR,,0.00,WeatherDisplay:10.37,2013-01-28 03:44:00,
2013-01-27 22:49:00,73.4,60.5,30.33,ENE,68,9.2,9.2,64,0.00,CLR,,0.00,WeatherDisplay:10.37,2013-01-28 03:49:00,
2013-01-27 22:55:00,73.4,60.5,30.33,East,90,9.8,9.8,64,0.00,CLR,,0.00,WeatherDisplay:10.37,2013-01-28 03:55:00,
2013-01-27 23:00:00,73.4,60.9,30.33,East,90,8.1,8.1,65,0.00,CLR,,0.00,WeatherDisplay:10.37,2013-01-28 04:00:00,
2013-01-27 23:05:00,73.4,60.9,30.33,NE,45,15.0,15.0,65,0.00,CLR,,0.00,WeatherDisplay:10.37,2013-01-28 04:05:00,
2013-01-27 23:10:00,73.4,60.9,30.33,NE,45,8.1,8.1,65,0.00,CLR,,0.00,WeatherDisplay:10.37,2013-01-28 04:10:00,
2013-01-27 23:15:00,73.4,60.9,30.33,ENE,71,8.0,10.0,65,0.00,CLR,,0.00,WeatherDisplay:10.37,2013-01-28 04:15:00,
2013-01-27 23:21:00,73.4,60.9,30.30,SE,135,9.2,9.2,65,0.00,CLR,,0.00,WeatherDisplay:10.37,2013-01-28 04:21:00,
2013-01-27 23:26:00,73.4,60.9,30.30,East,90,8.1,8.1,65,0.00,CLR,,0.00,WeatherDisplay:10.37,2013-01-28 04:26:00,
2013-01-27 23:31:00,73.4,61.3,30.30,East,90,10.9,10.9,66,0.00,CLR,,0.00,WeatherDisplay:10.37,2013-01-28 04:31:00,
2013-01-27 23:36:00,73.4,60.9,30.30,East,90,8.1,8.1,65,0.00,CLR,,0.00,WeatherDisplay:10.37,2013-01-28 04:36:00,
2013-01-27 23:42:00,73.4,60.9,30.30,ENE,68,8.7,8.7,65,0.00,CLR,,0.00,WeatherDisplay:10.37,2013-01-28 04:42:00,
2013-01-27 23:47:00,73.4,61.3,30.30,NE,45,9.8,9.8,66,0.00,CLR,,0.00,WeatherDisplay:10.37,2013-01-28 04:47:00,
2013-01-27 23:52:00,73.4,61.3,30.30,East,90,10.4,10.4,66,0.00,CLR,,0.00,WeatherDisplay:10.37,2013-01-28 04:52:00,
2013-01-27 23:57:00,73.4,61.3,30.30,East,90,9.4,9.4,66,0.00,CLR,,0.00,WeatherDisplay:10.37,2013-01-28 04:57:00,